| time (UTC) | temp C | wind direction | speed KPH | gust KPH | rain 1hr cm | rain 24hr cm | rain mn cm | humidity % | barometer mb |
| 20260502003003 | 16 | 109 | 3.2 | 11.3 | 0.00 | 0.00 | 0.00 | 51 | 1012.2 |
| 20260502002503 | 16 | 93 | 3.2 | 4.8 | 0.00 | 0.00 | 0.00 | 51 | 1012.0 |
| 20260502002003 | 16 | 138 | 1.6 | 4.8 | 0.00 | 0.00 | 0.00 | 52 | 1012.0 |
| 20260502001503 | 16 | 93 | 1.6 | 4.8 | 0.00 | 0.00 | 0.00 | 52 | 1012.2 |
| 20260502001003 | 16 | 65 | 1.6 | 4.8 | 0.00 | 0.00 | 0.00 | 53 | 1012.1 |
| 20260502000004 | 16 | 57 | 0.0 | 3.2 | 0.00 | 0.00 | 0.00 | 52 | 1012.0 |
| 20260501235503 | 16 | 122 | 0.0 | 1.6 | 0.00 | 0.00 | 0.00 | 51 | 1011.8 |
| 20260501235003 | 17 | 68 | 0.0 | 1.6 | 0.00 | 0.00 | 0.00 | 50 | 1011.8 |
| 20260501234503 | 17 | 149 | 0.0 | 12.9 | 0.00 | 0.00 | 0.00 | 50 | 1011.9 |
| 20260501234003 | 17 | 129 | 0.0 | 12.9 | 0.00 | 0.00 | 0.00 | 48 | 1011.9 |
| 20260501233503 | 17 | 179 | 1.6 | 9.7 | 0.00 | 0.00 | 0.00 | 49 | 1011.8 |
| 20260501232504 | 17 | 69 | 1.6 | 19.3 | 0.00 | 0.00 | 0.00 | 49 | 1011.5 |
| 20260501232003 | 17 | 133 | 6.4 | 19.3 | 0.00 | 0.00 | 0.00 | 48 | 1011.4 |
| 20260501231503 | 17 | 161 | 3.2 | 14.5 | 0.00 | 0.00 | 0.00 | 49 | 1011.4 |
| 20260501231003 | 17 | 129 | 4.8 | 14.5 | 0.00 | 0.00 | 0.00 | 48 | 1011.3 |
| 20260501230503 | 17 | 125 | 1.6 | 14.5 | 0.00 | 0.00 | 0.00 | 48 | 1011.2 |
| 20260501230003 | 17 | 89 | 3.2 | 14.5 | 0.00 | 0.00 | 0.00 | 47 | 1011.1 |
| 20260501225003 | 17 | 181 | 3.2 | 12.9 | 0.00 | 0.00 | 0.00 | 46 | 1011.2 |
| 20260501224504 | 17 | 135 | 4.8 | 12.9 | 0.00 | 0.00 | 0.00 | 47 | 1011.2 |
| 20260501224003 | 17 | 164 | 3.2 | 12.9 | 0.00 | 0.00 | 0.00 | 47 | 1011.2 |
| 20260501223503 | 17 | 164 | 3.2 | 16.1 | 0.00 | 0.00 | 0.00 | 46 | 1011.2 |
| 20260501223004 | 17 | 134 | 4.8 | 19.3 | 0.00 | 0.00 | 0.00 | 45 | 1011.3 |
| 20260501222504 | 18 | 142 | 8.0 | 19.3 | 0.00 | 0.00 | 0.00 | 44 | 1011.4 |
| 20260501222003 | 18 | 138 | 8.0 | 16.1 | 0.00 | 0.00 | 0.00 | 44 | 1011.5 |
| 20260501221503 | 18 | 203 | 4.8 | 14.5 | 0.00 | 0.00 | 0.00 | 44 | 1011.6 |
| 20260501221003 | 19 | 160 | 4.8 | 24.1 | 0.00 | 0.00 | 0.00 | 43 | 1011.5 |
| 20260501220503 | 18 | 193 | 11.3 | 24.1 | 0.00 | 0.00 | 0.00 | 43 | 1011.7 |
| 20260501220003 | 18 | 150 | 4.8 | 19.3 | 0.00 | 0.00 | 0.00 | 46 | 1011.6 |
| 20260501215504 | 18 | 198 | 3.2 | 12.9 | 0.00 | 0.00 | 0.00 | 44 | 1011.7 |
| 20260501215003 | 18 | 127 | 4.8 | 16.1 | 0.00 | 0.00 | 0.00 | 44 | 1011.8 |
| 20260501214004 | 18 | 65 | 3.2 | 14.5 | 0.00 | 0.00 | 0.00 | 45 | 1011.8 |
| 20260501213503 | 18 | 112 | 4.8 | 12.9 | 0.00 | 0.00 | 0.00 | 44 | 1011.8 |
| 20260501213003 | 18 | 137 | 1.6 | 12.9 | 0.00 | 0.00 | 0.00 | 44 | 1011.9 |
| 20260501211503 | 18 | 111 | 1.6 | 11.3 | 0.00 | 0.00 | 0.00 | 45 | 1011.9 |
| 20260501210003 | 18 | 170 | 8.0 | 19.3 | 0.00 | 0.00 | 0.00 | 42 | 1012.2 |
| 20260501205503 | 18 | 143 | 6.4 | 19.3 | 0.00 | 0.00 | 0.00 | 44 | 1012.1 |
| 20260501205003 | 18 | 182 | 11.3 | 16.1 | 0.00 | 0.00 | 0.00 | 43 | 1012.2 |
| 20260501203003 | 18 | 195 | 11.3 | 19.3 | 0.00 | 0.00 | 0.00 | 42 | 1012.3 |
| 20260501202504 | 18 | 239 | 4.8 | 16.1 | 0.00 | 0.00 | 0.00 | 41 | 1012.5 |
| 20260501201503 | 18 | 76 | 4.8 | 16.1 | 0.00 | 0.00 | 0.00 | 42 | 1012.7 |
| 20260501201004 | 17 | 209 | 3.2 | 16.1 | 0.00 | 0.00 | 0.00 | 43 | 1012.7 |
| 20260501200503 | 18 | 200 | 4.8 | 12.9 | 0.00 | 0.00 | 0.00 | 40 | 1012.7 |
| 20260501200004 | 18 | 108 | 1.6 | 19.3 | 0.00 | 0.00 | 0.00 | 42 | 1012.7 |
| 20260501194004 | 19 | 127 | 3.2 | 12.9 | 0.00 | 0.00 | 0.00 | 43 | 1013.2 |
| 20260501193504 | 18 | 213 | 8.0 | 14.5 | 0.00 | 0.00 | 0.00 | 43 | 1013.4 |
| 20260501193003 | 18 | 325 | 3.2 | 14.5 | 0.00 | 0.00 | 0.00 | 42 | 1013.7 |
| 20260501192003 | 18 | 182 | 3.2 | 12.9 | 0.00 | 0.00 | 0.00 | 44 | 1013.8 |
| 20260501190003 | 17 | 187 | 8.0 | 19.3 | 0.00 | 0.00 | 0.00 | 43 | 1014.2 |
| 20260501185503 | 17 | 175 | 4.8 | 16.1 | 0.00 | 0.00 | 0.00 | 42 | 1014.2 |
| 20260501185005 | 18 | 168 | 3.2 | 19.3 | 0.00 | 0.00 | 0.00 | 41 | 1014.3 |
| 20260501184504 | 17 | 201 | 9.7 | 19.3 | 0.00 | 0.00 | 0.00 | 44 | 1014.3 |
| 20260501184003 | 18 | 181 | 1.6 | 19.3 | 0.00 | 0.00 | 0.00 | 44 | 1014.3 |
| 20260501183503 | 18 | 215 | 9.7 | 19.3 | 0.00 | 0.00 | 0.00 | 43 | 1014.4 |
| 20260501183004 | 17 | 187 | 4.8 | 14.5 | 0.00 | 0.00 | 0.00 | 45 | 1014.5 |
| 20260501182003 | 17 | 199 | 8.0 | 16.1 | 0.00 | 0.00 | 0.00 | 45 | 1014.6 |
| 20260501181503 | 17 | 328 | 3.2 | 22.5 | 0.00 | 0.00 | 0.00 | 46 | 1014.6 |
| 20260501181003 | 17 | 201 | 8.0 | 22.5 | 0.00 | 0.00 | 0.00 | 44 | 1014.9 |
| 20260501180503 | 16 | 165 | 3.2 | 19.3 | 0.00 | 0.00 | 0.00 | 45 | 1015.0 |
| 20260501180004 | 17 | 200 | 9.7 | 19.3 | 0.00 | 0.00 | 0.00 | 44 | 1015.1 |
| 20260501175503 | 17 | 180 | 8.0 | 16.1 | 0.00 | 0.00 | 0.00 | 46 | 1015.2 |
| 20260501175004 | 17 | 175 | 8.0 | 20.9 | 0.00 | 0.00 | 0.00 | 43 | 1015.2 |
| 20260501174503 | 16 | 221 | 9.7 | 20.9 | 0.00 | 0.00 | 0.00 | 46 | 1015.2 |
| 20260501174003 | 16 | 186 | 8.0 | 20.9 | 0.00 | 0.00 | 0.00 | 48 | 1015.2 |
| 20260501173503 | 16 | 215 | 4.8 | 24.1 | 0.00 | 0.00 | 0.00 | 47 | 1015.4 |
| 20260501173004 | 16 | 198 | 6.4 | 24.1 | 0.00 | 0.00 | 0.00 | 49 | 1015.5 |